Location: Crescent
(42.8242°N, 73.7329°W)
Time: 20:52:44
(UTC+00:00)

SR - Pass Details

Date: 16 February 2026
Orbit: 573 x 848 km, 66.7° (Epoch: 6 March)

Event Time Altitude Azimuth Distance (km) Brightness Sun altitude
Rises 09:35:20 0° 203° (SSW) 2,764 - -25.4°
Reaches altitude 10° 09:37:31 10° 201° (SSW) 1,874 - -25.0°
Exits shadow 09:41:20 66° 153° (SSE) 638 ? -24.3°
Maximum altitude 09:41:40 70° 119° (ESE) 624 ? -24.3°
Drops below altitude 10° 09:46:01 10° 35° (NE) 1,960 ? -23.5°
Sets 09:48:20 0° 33° (NNE) 2,903 ? -23.0°
